Location: Saint Louis
(38.6272°N, 90.1978°W)
Time: 21:22:07
(UTC-05:00)

ISS - Pass Details

Date: 29 May 2013
Orbit: 402 x 403 km, 51.6° (Epoch: 26 June)

Event Time Altitude Azimuth Distance (km) Brightness Sun altitude
Exits shadow 00:51:01 14° 29° (NNE) 1,320 -0.1 -29.7°
Drops below altitude 10° 00:51:39 10° 35° (NE) 1,541 0.2 -29.7°
Enters shadow 01:57:12 -52° 251° (WSW) 10,546 3.9 -28.2°
